Regional Weather Roundup
Issued by NWS

Home | Current Version | Previous Version | Text Only | Print | Product List | Glossary On
Versions: 1 2 3 4 5 6 7 8 9 10 11 12 13 14 15 16 17 18 19 20 21 22 23 24 25 26 27 28 29 30 31 32 33 34 35 36 37 38 39 40 41 42 43 44 45 46 47 48 49 50
433
ASUS44 KBMX 240610
RWRAL

ALABAMA REGIONAL WEATHER ROUNDUP
NATIONAL WEATHER SERVICE BIRMINGHAM AL
100 AM CDT THU MAY 24 2018

NOTE: "FAIR" INDICATES FEW OR NO CLOUDS BELOW 12,000 FEET
WITH NO SIGNIFICANT WEATHER AND/OR OBSTRUCTIONS TO VISIBILITY.

THE REMARK "TC" DENOTES TEMPERATURE IN DEGREES CELSIUS.

ALZ001>011-014-016>018-020-240700-
NORTH ALABAMA

CITY           SKY/WX    TMP DP  RH WIND       PRES   REMARKS
MUSCLE SHOALS  FAIR      74  69  85 CALM      30.09S
6HR MIN TEMP:  73; 6HR MAX TEMP:  87;

HUNTSVILLE     FAIR      75  67  76 N5        30.07S
6HR MIN TEMP:  73; 6HR MAX TEMP:  85;

DECATUR        FAIR      73  66  78 N8        30.08S
6HR MIN TEMP:  72; 6HR MAX TEMP:  83;

HALEYVILLE     FAIR      69  32  25 CALM      30.11F
6HR MIN TEMP:  69; 6HR MAX TEMP:  80;

GADSDEN        FAIR      70  70 100 CALM      30.06F
6HR MIN TEMP:  70; 6HR MAX TEMP:  80;

$$

ALZ012-013-022-023-030>036-040>044-240700-
WEST CENTRAL ALABAMA

CITY           SKY/WX    TMP DP  RH WIND       PRES   REMARKS
TUSCALOOSA     FAIR      72  70  93 CALM      30.06F
6HR MIN TEMP:  72; 6HR MAX TEMP:  78;

DEMOPOLIS      FAIR      71  68  92 CALM      30.06F
6HR MIN TEMP:  71; 6HR MAX TEMP:  78;

$$

ALZ015-024>026-033>036-041>044-240700-
CENTRAL ALABAMA

CITY           SKY/WX    TMP DP  RH WIND       PRES   REMARKS
BIRMINGHAM     FAIR      71  71 100 CALM      30.09F
6HR MIN TEMP:  71; 6HR MAX TEMP:  82;

MONTGOMERY     FAIR      73  72  96 SW3       30.06F
6HR MIN TEMP:  73; 6HR MAX TEMP:  79;

SHELBY CO ARPT FAIR      72  70  93 CALM      30.07F
6HR MIN TEMP:  71; 6HR MAX TEMP:  79;

MAXWELL AFB    FAIR      74  72  93 W3        30.05F
6HR MIN TEMP:  74; 6HR MAX TEMP:  81;

GREENVILLE     FAIR      71  67  87 CALM      30.06F
6HR MIN TEMP:  71; 6HR MAX TEMP:  77;

SELMA          FAIR      73  70  88 CALM      30.06S
PRATTVILLE     FAIR      72  72 100 CALM      30.05F
6HR MIN TEMP:  72; 6HR MAX TEMP:  81;

BESSEMER       FAIR      71  70  96 CALM      30.08F
6HR MIN TEMP:  70; 6HR MAX TEMP:  76;

TALLADEGA      FAIR      71  71 100 CALM      30.07F
6HR MIN TEMP:  71; 6HR MAX TEMP:  84;

PELL CITY      CLEAR     70  70 100 CALM      30.06F
MARION         FOG       71  71 100 CALM      30.06F VSB 3/4
6HR MIN TEMP:  71; 6HR MAX TEMP:  76;

SYLACAUGA        N/A     71  71 100 CALM      30.07F FOG
6HR MIN TEMP:  71; 6HR MAX TEMP:  83;

$$

ALZ019-021-028-029-037-038-045>048-240700-
EAST CENTRAL ALABAMA

CITY           SKY/WX    TMP DP  RH WIND       PRES   REMARKS
ANNISTON       FAIR      70  69  97 CALM      30.06F
6HR MIN TEMP:  70; 6HR MAX TEMP:  84;

ALEXANDER CITY FAIR      71  71 100 CALM      30.07S
6HR MIN TEMP:  71; 6HR MAX TEMP:  81;

AUBURN         MOCLDY    72  70  93 SW3       30.09S
6HR MIN TEMP:  72; 6HR MAX TEMP:  75;

$$

ALZ051>064-240700-
SOUTHWEST ALABAMA

CITY           SKY/WX    TMP DP  RH WIND       PRES   REMARKS
MOBILE         FAIR      73  69  87 N5        30.07S
6HR MIN TEMP:  72; 6HR MAX TEMP:  78; 6HR PCP:  0.01;

BROOKLEY FIELD FAIR      73  72  96 NW3       30.07F
6HR MIN TEMP:  73; 6HR MAX TEMP:  81; 6HR PCP:  0.38;

EVERGREEN      FAIR      69  67  93 CALM      30.07F
6HR MIN TEMP:  69; 6HR MAX TEMP:  74; 6HR PCP: TRACE;

$$

ALZ049-050-065>069-240700-
SOUTHEAST ALABAMA

CITY           SKY/WX    TMP DP  RH WIND       PRES   REMARKS
DOTHAN         FAIR      72  69  90 CALM      30.10F
6HR MIN TEMP:  72; 6HR MAX TEMP:  75;

OZARK          FAIR      70  69  97 CALM      30.06S
6HR MIN TEMP:  70; 6HR MAX TEMP:  76;

TROY           FAIR      69  67  93 CALM      30.07F FOG
6HR MIN TEMP:  69; 6HR MAX TEMP:  75;

EUFAULA        FAIR      70  70 100 CALM      30.05F
6HR MIN TEMP:  70; 6HR MAX TEMP:  77;

$$




USA.gov is the U.S. government's official web portal to all federal, state and local government web resources and services.